When you browse on this site, cookies collect data to enhance your experience and personalize the content and advertising you see.
Visit our Privacy Policy to learn more. By continuing to use the site, you agree to this use of cookies and data.
  • In Hungary
  • List of Countries
  • For 7 days
  • Water Temperature
  • Satellite Maps
  • Weather Map
  • News
  • Weather Widgets
  • user-avatar
    Login

    Hourly Weather Hongyang

    Today, 10 December, Monday

    Time Temperature Precipitation Wind Pressure Humidity
    00:00 +9°C° 0.3 mm 2 mps 742 mmHg 95%
    01:00 +10°C° 0.3 mm 2 mps 742 mmHg 95%
    02:00 +10°C° 0 mm 2 mps 741 mmHg 96%
    03:00 +10°C° 0.2 mm 2 mps 741 mmHg 95%
    04:00 +12°C° 0.2 mm 2 mps 741 mmHg 95%
    05:00 +12°C° 0.2 mm 2 mps 741 mmHg 95%
    06:00 +12°C° 0 mm 2 mps 741 mmHg 94%
    07:00 +12°C° 0 mm 2 mps 741 mmHg 93%
    08:00 +13°C° 0 mm 2 mps 742 mmHg 92%
    09:00 +15°C° 0 mm 2 mps 742 mmHg 87%
    10:00 +16°C° 0 mm 2 mps 741 mmHg 82%
    11:00 +19°C° 0 mm 1 mps 741 mmHg 77%
    12:00 +19°C° 0 mm 2 mps 741 mmHg 75%
    13:00 +19°C° 0 mm 2 mps 740 mmHg 73%
    14:00 +20°C° 0 mm 2 mps 740 mmHg 71%
    15:00 +19°C° 0 mm 2 mps 740 mmHg 76%
    16:00 +18°C° 0 mm 2 mps 740 mmHg 82%
    17:00 +17°C° 0 mm 2 mps 740 mmHg 87%
    18:00 +16°C° 0 mm 2 mps 740 mmHg 89%
    19:00 +16°C° 0 mm 2 mps 740 mmHg 92%
    20:00 +15°C° 0 mm 2 mps 740 mmHg 94%
    21:00 +15°C° 0 mm 2 mps 740 mmHg 94%
    22:00 +15°C° 0 mm 2 mps 740 mmHg 94%
    23:00 +15°C° 0 mm 2 mps 741 mmHg 95%

    Tomorrow, 11 December, Tuesday

    Time Temperature Precipitation Wind Pressure Humidity
    00:00 +15°C° 0 mm 2 mps 740 mmHg 94%
    01:00 +14°C° 0 mm 2 mps 740 mmHg 94%
    02:00 +14°C° 0 mm 2 mps 740 mmHg 93%
    03:00 +14°C° 0 mm 2 mps 740 mmHg 93%
    04:00 +14°C° 0 mm 2 mps 740 mmHg 93%
    05:00 +14°C° 0 mm 2 mps 740 mmHg 93%
    06:00 +14°C° 0 mm 2 mps 740 mmHg 92%
    07:00 +15°C° 0 mm 2 mps 740 mmHg 90%
    08:00 +15°C° 0 mm 2 mps 741 mmHg 88%
    09:00 +17°C° 0 mm 2 mps 741 mmHg 81%
    10:00 +18°C° 0 mm 2 mps 741 mmHg 74%
    11:00 +20°C° 0 mm 2 mps 741 mmHg 67%
    12:00 +21°C° 0 mm 2 mps 741 mmHg 65%
    13:00 +23°C° 0 mm 2 mps 740 mmHg 63%
    14:00 +23°C° 0 mm 2 mps 740 mmHg 61%
    15:00 +21°C° 0 mm 2 mps 740 mmHg 68%
    16:00 +19°C° 0 mm 2 mps 740 mmHg 75%
    17:00 +18°C° 0 mm 2 mps 740 mmHg 82%
    18:00 +17°C° 0 mm 2 mps 741 mmHg 84%
    19:00 +16°C° 0 mm 2 mps 741 mmHg 86%
    20:00 +16°C° 0 mm 2 mps 742 mmHg 88%
    21:00 +15°C° 0.1 mm 2 mps 742 mmHg 88%
    22:00 +15°C° 0.1 mm 2 mps 743 mmHg 88%
    23:00 +14°C° 0.1 mm 3 mps 743 mmHg 89%

    Day after tomorrow, 12 December, Wednesday

    Time Temperature Precipitation Wind Pressure Humidity
    00:00 +13°C° 0.1 mm 3 mps 743 mmHg 89%
    01:00 +13°C° 0.1 mm 3 mps 743 mmHg 89%
    02:00 +12°C° 0.1 mm 3 mps 743 mmHg 89%
    03:00 +13°C° 0 mm 2 mps 743 mmHg 89%
    04:00 +13°C° 0 mm 2 mps 743 mmHg 88%
    05:00 +12°C° 0 mm 2 mps 743 mmHg 88%
    06:00 +12°C° 0 mm 3 mps 743 mmHg 87%
    07:00 +12°C° 0 mm 3 mps 744 mmHg 86%
    08:00 +12°C° 0 mm 3 mps 744 mmHg 85%
    09:00 +13°C° 0 mm 3 mps 744 mmHg 81%
    10:00 +13°C° 0 mm 3 mps 745 mmHg 77%
    11:00 +14°C° 0 mm 3 mps 745 mmHg 73%
    12:00 +14°C° 0 mm 3 mps 744 mmHg 73%
    13:00 +14°C° 0 mm 3 mps 743 mmHg 73%
    14:00 +14°C° 0 mm 3 mps 743 mmHg 73%
    15:00 +14°C° 0 mm 3 mps 743 mmHg 75%
    16:00 +13°C° 0 mm 3 mps 743 mmHg 77%
    17:00 +13°C° 0 mm 3 mps 743 mmHg 79%
    18:00 +12°C° 0 mm 3 mps 743 mmHg 80%
    19:00 +12°C° 0 mm 3 mps 744 mmHg 81%
    20:00 +12°C° 0 mm 3 mps 744 mmHg 83%
    21:00 +11°C° 0 mm 3 mps 744 mmHg 83%
    22:00 +11°C° 0 mm 3 mps 744 mmHg 84%
    23:00 +11°C° 0 mm 3 mps 744 mmHg 85%

    13 December, Thursday

    Time Temperature Precipitation Wind Pressure Humidity
    00:00 +11°C° 0.1 mm 3 mps 744 mmHg 85%
    01:00 +12°C° 0.1 mm 2 mps 744 mmHg 86%
    02:00 +12°C° 0.1 mm 2 mps 744 mmHg 87%
    03:00 +12°C° 0.1 mm 2 mps 744 mmHg 87%
    04:00 +12°C° 0.1 mm 2 mps 743 mmHg 88%
    05:00 +10°C° 0.1 mm 2 mps 743 mmHg 88%
    06:00 +10°C° 0.6 mm 2 mps 744 mmHg 89%
    07:00 +10°C° 0.6 mm 2 mps 744 mmHg 91%
    08:00 +10°C° 0.6 mm 2 mps 745 mmHg 92%
    09:00 +12°C° 0.3 mm 2 mps 745 mmHg 90%
    10:00 +12°C° 0.3 mm 2 mps 745 mmHg 88%
    11:00 +13°C° 0.3 mm 2 mps 745 mmHg 86%
    12:00 +13°C° 0.1 mm 2 mps 744 mmHg 84%
    13:00 +13°C° 0.1 mm 2 mps 743 mmHg 83%
    14:00 +14°C° 0.1 mm 2 mps 743 mmHg 81%
    15:00 +14°C° 0.1 mm 2 mps 743 mmHg 84%
    16:00 +13°C° 0.1 mm 2 mps 743 mmHg 87%
    17:00 +13°C° 0.1 mm 2 mps 743 mmHg 89%
    18:00 +13°C° 0 mm 2 mps 744 mmHg 90%
    19:00 +12°C° 0 mm 2 mps 744 mmHg 91%
    20:00 +12°C° 0 mm 2 mps 745 mmHg 91%
    21:00 +12°C° 0 mm 2 mps 745 mmHg 91%
    22:00 +12°C° 0 mm 2 mps 745 mmHg 92%
    23:00 +12°C° 0 mm 2 mps 745 mmHg 92%

    14 December, Friday

    Time Temperature Precipitation Wind Pressure Humidity
    00:00 +12°C° 0 mm 2 mps 744 mmHg 92%
    01:00 +12°C° 0 mm 2 mps 744 mmHg 92%
    02:00 +12°C° 0 mm 2 mps 744 mmHg 91%
    03:00 +12°C° 0 mm 2 mps 744 mmHg 91%
    04:00 +12°C° 0 mm 2 mps 744 mmHg 92%
    05:00 +10°C° 0 mm 2 mps 744 mmHg 92%
    06:00 +12°C° 0 mm 2 mps 744 mmHg 91%
    07:00 +12°C° 0 mm 2 mps 745 mmHg 90%
    08:00 +12°C° 0 mm 2 mps 745 mmHg 89%
    09:00 +13°C° 0 mm 2 mps 745 mmHg 86%
    10:00 +14°C° 0 mm 2 mps 745 mmHg 83%
    11:00 +14°C° 0 mm 3 mps 745 mmHg 80%
    12:00 +14°C° 0 mm 3 mps 744 mmHg 79%
    13:00 +16°C° 0 mm 3 mps 743 mmHg 79%
    14:00 +16°C° 0 mm 3 mps 743 mmHg 78%
    15:00 +14°C° 0 mm 3 mps 743 mmHg 81%
    16:00 +14°C° 0 mm 3 mps 743 mmHg 84%
    17:00 +13°C° 0 mm 3 mps 743 mmHg 87%
    18:00 +13°C° 0 mm 3 mps 744 mmHg 89%
    19:00 +13°C° 0 mm 2 mps 744 mmHg 90%
    20:00 +13°C° 0 mm 2 mps 744 mmHg 92%
    21:00 +13°C° 0 mm 2 mps 744 mmHg 92%
    22:00 +13°C° 0 mm 2 mps 744 mmHg 91%
    23:00 +13°C° 0 mm 2 mps 744 mmHg 91%

    15 December, Saturday

    Time Temperature Precipitation Wind Pressure Humidity
    00:00 +13°C° 0 mm 2 mps 744 mmHg 91%
    01:00 +13°C° 0 mm 2 mps 744 mmHg 91%
    02:00 +13°C° 0 mm 2 mps 743 mmHg 91%
    03:00 +13°C° 0 mm 2 mps 743 mmHg 91%
    04:00 +13°C° 0 mm 2 mps 743 mmHg 91%
    05:00 +13°C° 0 mm 2 mps 743 mmHg 91%
    06:00 +13°C° 0 mm 2 mps 743 mmHg 91%
    07:00 +13°C° 0 mm 2 mps 743 mmHg 90%
    08:00 +14°C° 0 mm 2 mps 743 mmHg 89%
    09:00 +14°C° 0.1 mm 2 mps 743 mmHg 87%
    10:00 +15°C° 0.1 mm 2 mps 743 mmHg 85%
    11:00 +15°C° 0.1 mm 2 mps 743 mmHg 83%
    12:00 +16°C° 0.1 mm 2 mps 742 mmHg 83%
    13:00 +16°C° 0.1 mm 2 mps 742 mmHg 83%
    14:00 +16°C° 0.1 mm 2 mps 741 mmHg 84%
    15:00 +16°C° 0.1 mm 2 mps 741 mmHg 86%
    16:00 +15°C° 0.1 mm 2 mps 741 mmHg 88%
    17:00 +15°C° 0.1 mm 1 mps 741 mmHg 90%
    18:00 +15°C° 0 mm 1 mps 742 mmHg 91%
    19:00 +14°C° 0 mm 1 mps 742 mmHg 93%
    20:00 +14°C° 0 mm 1 mps 742 mmHg 94%
    21:00 +14°C° 0 mm 1 mps 742 mmHg 94%
    22:00 +14°C° 0 mm 1 mps 742 mmHg 95%
    23:00 +14°C° 0 mm 1 mps 741 mmHg 96%
    Show more